STARLINK-30408, 57824

Orbit data source: Space-Track

STARLINK-30408, 57824 is a payload satellite owned by SpaceX/Seattle (US) in LEO that was launched on Sat, 09 Sep 2023 UTC via an FALCON 9 launch vehicle from the Air Force Eastern Test Range (AFETR). Payload-class satellites include a variety of spacecraft equipped with specific instruments for various scientific and technological missions. These include communications satellites like Starlink; space stations such as the ISS; scientific satellites like the Hubble; Earth observation satellites from companies like Planet Labs, Umbra, and HawkEye 360; GPS; miniature CubeSats for education and research; and military/defense satellites.

Loading next visibility...
Identifier
57824, 2023-138S
Orbit
LEO
Country
Flag of USUS
Related business
Manufacturer
SpaceX/Seattle
Mission
Operational Commercial Communications
Bus & Motor
STARLINK V2M, Unknown motor
Mass
730 kg wet, ~700 kg dry
Launch date (UTC)
2023-09-09 (3 years ago)
Launch vehicle
FALCON 9
Launch site
Air Force Eastern Test Range (AFETR)
Object type
Payload
Rocket body
Debris
Shape & HBR
Box + 2 Pan, 17.7 m
Radar Cross Section
33.884 m², Large (>1 m²)

Expand to show TLE details & history
Last TLE update: 3 days ago

TLE from 3 days ago
0 STARLINK-30408
1 57824U 23138S   26169.99084012  .00000335  00000-0  21714-4 0  9990
2 57824  43.0040  21.8623 0001758 266.4100  93.6550 15.27577033154223
Epoch: 2026-06-18T23:46Z
TLE epoch observation values (Epoch: 2026-06-18T23:46:48.586Z)
Latitude
-0.00006°
Longitude
117.93356°
Altitude
482.911 km
Speed
7.626 km/s
True Right ascension
01h 27m 26s
True Declination
0° 00' 00"
Sunlit
Object was in daylight at epoch
Visualization orbit readout
Latitude
Unknown
Longitude
Unknown
Altitude
Unknown
Speed
Unknown
Apparent Right ascension
Unknown
Apparent Declination
Unknown
Sunlit
N/A
Visualization observer readout
Local Sidereal Time
21:33:44
Azimuth
Unknown
Elevation
Unknown
Doppler factor
Unknown
Orbital elements
Apogee altitude
486.209 km
Perigee altitude
483.796 km
Semi-major axis
6,863.139 km
Eccentricity
0.00018
Inclination
43.004°
RAAN
21.8623°
Arg. of periapsis
266.41°
True anomaly
93.6751°
Mean anomaly
93.655°
Eccentric anomaly
93.66505°
Mean motion
3.81732 °/min
Orbital period
94.31 mins
BSTAR
0.000021714
Loading maneuver chart data...
Computing Atmospheric mass density...
Loading historical data...
Loading historical data...
Loading historical data...
Loading historical data...
Loading historical data...
Loading historical data...
Loading historical data...

Documentation

Showing up to 5 results
|